Time,TemperatureF,DewpointF,PressureIn,WindDirection,WindDirectionDegrees,WindSpeedMPH,WindSpeedGustMPH,Humidity,HourlyPrecipIn,Conditions,Clouds,dailyrainin,SoftwareType,DateUTC
2013-03-11 00:00:00,47.5,27.7,29.57,SSW,202,3.0,17.0,46,0.00,,,0.00,Weather View 32 v70,2013-03-11 04:00:00,
2013-03-11 00:05:00,47.4,28.1,29.57,WSW,247,1.0,17.0,47,0.00,,,0.00,Weather View 32 v70,2013-03-11 04:05:00,
2013-03-11 00:10:00,47.4,28.1,29.57,SE,135,0.0,17.0,47,0.00,,,0.00,Weather View 32 v70,2013-03-11 04:10:00,
2013-03-11 00:15:00,47.4,28.1,29.57,ESE,112,2.0,17.0,47,0.00,,,0.00,Weather View 32 v70,2013-03-11 04:15:00,
2013-03-11 00:20:00,47.4,28.1,29.57,ESE,112,0.0,17.0,47,0.00,,,0.00,Weather View 32 v70,2013-03-11 04:20:00,
2013-03-11 00:25:00,47.3,28.1,29.57,West,270,0.0,17.0,47,0.00,,,0.00,Weather View 32 v70,2013-03-11 04:25:00,
2013-03-11 00:30:00,47.1,28.4,29.58,ESE,112,1.0,17.0,48,0.00,,,0.00,Weather View 32 v70,2013-03-11 04:30:00,
2013-03-11 00:35:00,46.8,29.1,29.58,SE,135,8.0,13.0,50,0.00,,,0.00,Weather View 32 v70,2013-03-11 04:35:00,
2013-03-11 00:40:00,46.7,28.5,29.58,East,90,6.0,13.0,49,0.00,,,0.00,Weather View 32 v70,2013-03-11 04:40:00,
2013-03-11 00:45:00,46.8,28.6,29.58,SE,135,8.0,13.0,49,0.00,,,0.00,Weather View 32 v70,2013-03-11 04:45:00,
2013-03-11 00:50:00,46.8,28.6,29.58,ESE,112,0.0,13.0,49,0.00,,,0.00,Weather View 32 v70,2013-03-11 04:50:00,
2013-03-11 00:55:00,46.6,28.9,29.58,SE,135,4.0,13.0,50,0.00,,,0.00,Weather View 32 v70,2013-03-11 04:55:00,
2013-03-11 01:00:00,46.6,28.9,29.58,ESE,112,9.0,15.0,50,0.00,,,0.00,Weather View 32 v70,2013-03-11 05:00:00,
2013-03-11 01:05:00,46.6,28.9,29.57,SSE,157,18.0,18.0,50,0.00,,,0.00,Weather View 32 v70,2013-03-11 05:05:00,
2013-03-11 01:10:00,46.7,29.0,29.56,SSE,157,13.0,21.0,50,0.00,,,0.00,Weather View 32 v70,2013-03-11 05:10:00,
2013-03-11 01:15:00,46.6,28.9,29.56,East,90,5.0,21.0,50,0.00,,,0.00,Weather View 32 v70,2013-03-11 05:15:00,
2013-03-11 01:20:00,46.2,28.6,29.56,ENE,67,7.0,21.0,50,0.00,,,0.00,Weather View 32 v70,2013-03-11 05:20:00,
2013-03-11 01:25:00,45.6,29.0,29.56,East,90,8.0,21.0,52,0.00,,,0.00,Weather View 32 v70,2013-03-11 05:25:00,
2013-03-11 01:30:00,45.4,29.2,29.55,East,90,5.0,21.0,53,0.00,,,0.00,Weather View 32 v70,2013-03-11 05:30:00,
2013-03-11 01:35:00,45.4,28.8,29.55,ESE,112,2.0,21.0,52,0.00,,,0.00,Weather View 32 v70,2013-03-11 05:35:00,
2013-03-11 01:40:00,45.7,29.1,29.55,ESE,112,9.0,21.0,52,0.00,,,0.00,Weather View 32 v70,2013-03-11 05:40:00,
2013-03-11 01:45:00,45.9,29.2,29.55,SW,225,0.0,21.0,52,0.00,,,0.00,Weather View 32 v70,2013-03-11 05:45:00,
2013-03-11 01:50:00,45.9,29.2,29.55,SSE,157,6.0,21.0,52,0.00,,,0.00,Weather View 32 v70,2013-03-11 05:50:00,
2013-03-11 01:55:00,46.0,29.3,29.54,ESE,112,9.0,21.0,52,0.00,,,0.00,Weather View 32 v70,2013-03-11 05:55:00,
2013-03-11 02:00:00,45.7,29.1,29.54,SSE,157,4.0,21.0,52,0.00,,,0.00,Weather View 32 v70,2013-03-11 06:00:00,
2013-03-11 02:05:00,45.3,29.1,29.54,SSE,157,0.0,21.0,53,0.00,,,0.00,Weather View 32 v70,2013-03-11 06:05:00,
2013-03-11 02:10:00,45.2,29.5,29.54,ESE,112,6.0,21.0,54,0.00,,,0.00,Weather View 32 v70,2013-03-11 06:10:00,
2013-03-11 02:15:00,45.1,29.9,29.54,ESE,112,1.0,21.0,55,0.00,,,0.00,Weather View 32 v70,2013-03-11 06:15:00,
2013-03-11 02:20:00,45.0,29.8,29.52,East,90,10.0,21.0,55,0.00,,,0.00,Weather View 32 v70,2013-03-11 06:20:00,
2013-03-11 02:25:00,45.0,29.8,29.53,East,90,3.0,21.0,55,0.00,,,0.00,Weather View 32 v70,2013-03-11 06:25:00,
2013-03-11 02:30:00,44.8,29.6,29.52,East,90,7.0,21.0,55,0.00,,,0.00,Weather View 32 v70,2013-03-11 06:30:00,
2013-03-11 02:35:00,44.9,29.7,29.53,NE,45,2.0,21.0,55,0.00,,,0.00,Weather View 32 v70,2013-03-11 06:35:00,
2013-03-11 02:40:00,44.8,30.0,29.52,ESE,112,6.0,21.0,56,0.00,,,0.00,Weather View 32 v70,2013-03-11 06:40:00,
2013-03-11 02:45:00,44.7,30.4,29.52,ESE,112,11.0,21.0,57,0.00,,,0.00,Weather View 32 v70,2013-03-11 06:45:00,
2013-03-11 02:50:00,44.6,30.3,29.52,ENE,67,6.0,21.0,57,0.00,,,0.00,Weather View 32 v70,2013-03-11 06:50:00,
2013-03-11 02:55:00,44.4,30.1,29.52,East,90,9.0,21.0,57,0.00,,,0.00,Weather View 32 v70,2013-03-11 06:55:00,
2013-03-11 03:00:00,44.4,30.5,29.51,ESE,112,0.0,21.0,58,0.00,,,0.00,Weather View 32 v70,2013-03-11 07:00:00,
2013-03-11 03:05:00,44.2,30.3,29.50,SSE,157,15.0,21.0,58,0.00,,,0.00,Weather View 32 v70,2013-03-11 07:05:00,
2013-03-11 03:10:00,44.3,30.4,29.51,East,90,15.0,21.0,58,0.00,,,0.00,Weather View 32 v70,2013-03-11 07:10:00,
2013-03-11 03:15:00,44.3,30.4,29.50,SSE,157,2.0,21.0,58,0.00,,,0.00,Weather View 32 v70,2013-03-11 07:15:00,
2013-03-11 03:20:00,44.1,30.7,29.51,SSE,157,2.0,21.0,59,0.00,,,0.00,Weather View 32 v70,2013-03-11 07:20:00,
2013-03-11 03:25:00,44.1,31.1,29.51,SSE,157,6.0,21.0,60,0.00,,,0.00,Weather View 32 v70,2013-03-11 07:25:00,
2013-03-11 03:30:00,43.9,31.3,29.51,SSE,157,7.0,20.0,61,0.00,,,0.00,Weather View 32 v70,2013-03-11 07:30:00,
2013-03-11 03:35:00,43.8,31.2,29.50,South,180,4.0,26.0,61,0.00,,,0.00,Weather View 32 v70,2013-03-11 07:35:00,
2013-03-11 03:40:00,43.7,31.5,29.50,SE,135,9.0,26.0,62,0.00,,,0.00,Weather View 32 v70,2013-03-11 07:40:00,
2013-03-11 03:45:00,43.6,31.4,29.49,SSE,157,14.0,26.0,62,0.00,,,0.00,Weather View 32 v70,2013-03-11 07:45:00,
2013-03-11 03:50:00,43.5,31.3,29.49,SSE,157,11.0,26.0,62,0.00,,,0.00,Weather View 32 v70,2013-03-11 07:50:00,
2013-03-11 03:55:00,43.4,31.2,29.49,SSE,157,13.0,26.0,62,0.00,,,0.00,Weather View 32 v70,2013-03-11 07:55:00,
2013-03-11 04:00:00,43.4,31.2,29.48,South,180,12.0,26.0,62,0.00,,,0.00,Weather View 32 v70,2013-03-11 08:00:00,
2013-03-11 04:05:00,43.4,31.6,29.48,SSE,157,20.0,26.0,63,0.00,,,0.00,Weather View 32 v70,2013-03-11 08:05:00,
2013-03-11 04:10:00,43.4,31.6,29.49,SSE,157,11.0,29.0,63,0.00,,,0.00,Weather View 32 v70,2013-03-11 08:10:00,
2013-03-11 04:15:00,43.2,31.4,29.49,South,180,17.0,29.0,63,0.00,,,0.00,Weather View 32 v70,2013-03-11 08:15:00,
2013-03-11 04:20:00,43.0,31.6,29.49,South,180,19.0,29.0,64,0.00,,,0.00,Weather View 32 v70,2013-03-11 08:20:00,
2013-03-11 04:25:00,42.9,31.5,29.48,South,180,14.0,30.0,64,0.00,,,0.00,Weather View 32 v70,2013-03-11 08:25:00,
2013-03-11 04:30:00,42.9,31.5,29.49,SE,135,10.0,30.0,64,0.00,,,0.00,Weather View 32 v70,2013-03-11 08:30:00,
2013-03-11 04:35:00,42.8,31.8,29.49,South,180,9.0,30.0,65,0.00,,,0.00,Weather View 32 v70,2013-03-11 08:35:00,
2013-03-11 04:40:00,42.6,31.6,29.49,East,90,6.0,30.0,65,0.00,,,0.00,Weather View 32 v70,2013-03-11 08:40:00,
2013-03-11 04:45:00,42.5,31.5,29.49,SSE,157,7.0,30.0,65,0.00,,,0.00,Weather View 32 v70,2013-03-11 08:45:00,
2013-03-11 04:50:00,42.4,31.8,29.49,SE,135,6.0,30.0,66,0.00,,,0.00,Weather View 32 v70,2013-03-11 08:50:00,
2013-03-11 04:55:00,42.3,31.4,29.49,East,90,10.0,30.0,65,0.00,,,0.00,Weather View 32 v70,2013-03-11 08:55:00,
2013-03-11 05:00:00,42.2,31.6,29.50,SW,225,1.0,30.0,66,0.00,,,0.00,Weather View 32 v70,2013-03-11 09:00:00,
2013-03-11 05:05:00,42.2,31.6,29.50,ESE,112,0.0,30.0,66,0.00,,,0.00,Weather View 32 v70,2013-03-11 09:05:00,
2013-03-11 05:10:00,42.1,31.5,29.51,SSE,157,2.0,30.0,66,0.00,,,0.00,Weather View 32 v70,2013-03-11 09:10:00,
2013-03-11 05:15:00,42.1,31.5,29.51,ESE,112,8.0,30.0,66,0.00,,,0.00,Weather View 32 v70,2013-03-11 09:15:00,
2013-03-11 05:20:00,42.0,31.5,29.51,ENE,67,9.0,30.0,66,0.00,,,0.00,Weather View 32 v70,2013-03-11 09:20:00,
2013-03-11 05:25:00,41.9,31.7,29.51,SSE,157,0.0,30.0,67,0.00,,,0.00,Weather View 32 v70,2013-03-11 09:25:00,
2013-03-11 05:30:00,41.8,32.0,29.51,SSE,157,0.0,20.0,68,0.00,,,0.00,Weather View 32 v70,2013-03-11 09:30:00,
2013-03-11 05:35:00,41.7,31.9,29.52,ESE,112,1.0,20.0,68,0.00,,,0.00,Weather View 32 v70,2013-03-11 09:35:00,
2013-03-11 05:40:00,41.4,31.6,29.52,East,90,6.0,20.0,68,0.00,,,0.00,Weather View 32 v70,2013-03-11 09:40:00,
2013-03-11 05:45:00,41.4,32.0,29.52,SSE,157,3.0,19.0,69,0.00,,,0.00,Weather View 32 v70,2013-03-11 09:45:00,
2013-03-11 05:50:00,41.2,31.8,29.52,ESE,112,7.0,19.0,69,0.00,,,0.00,Weather View 32 v70,2013-03-11 09:50:00,
2013-03-11 05:55:00,41.0,32.3,29.52,ESE,112,7.0,19.0,71,0.00,,,0.00,Weather View 32 v70,2013-03-11 09:55:00,
2013-03-11 06:00:00,40.9,32.2,29.52,SSE,157,7.0,19.0,71,0.00,,,0.00,Weather View 32 v70,2013-03-11 10:00:00,
2013-03-11 06:05:00,40.9,32.2,29.52,ESE,112,9.0,19.0,71,0.00,,,0.00,Weather View 32 v70,2013-03-11 10:05:00,
2013-03-11 06:10:00,40.9,31.9,29.52,SSE,157,8.0,19.0,70,0.00,,,0.00,Weather View 32 v70,2013-03-11 10:10:00,
2013-03-11 06:15:00,40.8,32.1,29.52,ENE,67,5.0,19.0,71,0.00,,,0.00,Weather View 32 v70,2013-03-11 10:15:00,
2013-03-11 06:20:00,40.8,31.8,29.51,SSE,157,4.0,18.0,70,0.00,,,0.00,Weather View 32 v70,2013-03-11 10:20:00,
2013-03-11 06:25:00,40.8,31.8,29.51,East,90,7.0,22.0,70,0.00,,,0.00,Weather View 32 v70,2013-03-11 10:25:00,
2013-03-11 06:31:00,40.7,32.0,29.52,East,90,4.0,22.0,71,0.00,,,0.00,Weather View 32 v70,2013-03-11 10:31:00,
2013-03-11 06:36:00,40.4,32.1,29.51,East,90,6.0,22.0,72,0.00,,,0.00,Weather View 32 v70,2013-03-11 10:36:00,
2013-03-11 06:41:00,40.3,32.3,29.52,ENE,67,2.0,22.0,73,0.00,,,0.00,Weather View 32 v70,2013-03-11 10:41:00,
2013-03-11 06:46:00,40.2,31.9,29.51,South,180,3.0,22.0,72,0.00,,,0.00,Weather View 32 v70,2013-03-11 10:46:00,
2013-03-11 06:51:00,40.3,31.6,29.51,ESE,112,8.0,22.0,71,0.00,,,0.00,Weather View 32 v70,2013-03-11 10:51:00,
2013-03-11 06:56:00,40.4,31.7,29.51,SE,135,6.0,22.0,71,0.00,,,0.00,Weather View 32 v70,2013-03-11 10:56:00,
2013-03-11 07:01:00,40.4,31.7,29.51,SE,135,16.0,22.0,71,0.00,,,0.00,Weather View 32 v70,2013-03-11 11:01:00,
2013-03-11 07:06:00,40.4,31.4,29.52,ESE,112,6.0,22.0,70,0.00,,,0.00,Weather View 32 v70,2013-03-11 11:06:00,
2013-03-11 07:11:00,40.5,31.5,29.51,SE,135,8.0,22.0,70,0.00,,,0.00,Weather View 32 v70,2013-03-11 11:11:00,
2013-03-11 07:16:00,40.6,31.2,29.51,SSE,157,10.0,22.0,69,0.00,,,0.00,Weather View 32 v70,2013-03-11 11:16:00,
2013-03-11 07:21:00,40.5,31.1,29.50,ESE,112,4.0,22.0,69,0.00,,,0.00,Weather View 32 v70,2013-03-11 11:21:00,
2013-03-11 07:30:00,40.4,31.0,29.50,ESE,112,10.0,22.0,69,0.00,,,0.00,Weather View 32 v70,2013-03-11 11:30:00,
2013-03-11 07:35:00,40.4,31.4,29.50,SSE,157,6.0,20.0,70,0.00,,,0.00,Weather View 32 v70,2013-03-11 11:35:00,
2013-03-11 07:40:00,40.4,31.0,29.50,SSE,157,15.0,20.0,69,0.00,,,0.00,Weather View 32 v70,2013-03-11 11:40:00,
2013-03-11 07:45:00,40.4,31.0,29.50,ESE,112,7.0,20.0,69,0.00,,,0.00,Weather View 32 v70,2013-03-11 11:45:00,
2013-03-11 07:50:00,40.6,30.9,29.51,ESE,112,9.0,20.0,68,0.00,,,0.00,Weather View 32 v70,2013-03-11 11:50:00,
2013-03-11 07:55:00,40.5,30.8,29.51,SSE,157,8.0,20.0,68,0.00,,,0.00,Weather View 32 v70,2013-03-11 11:55:00,
2013-03-11 08:00:00,40.4,31.0,29.50,SSE,157,13.0,20.0,69,0.00,,,0.00,Weather View 32 v70,2013-03-11 12:00:00,
2013-03-11 08:05:00,40.7,31.0,29.51,SE,135,10.0,26.0,68,0.00,,,0.00,Weather View 32 v70,2013-03-11 12:05:00,
2013-03-11 08:10:00,40.8,30.7,29.52,ESE,112,10.0,26.0,67,0.00,,,0.00,Weather View 32 v70,2013-03-11 12:10:00,
2013-03-11 08:15:00,41.3,30.8,29.51,SSE,157,15.0,26.0,66,0.00,,,0.00,Weather View 32 v70,2013-03-11 12:15:00,
2013-03-11 08:20:00,41.6,30.3,29.50,SSE,157,14.0,26.0,64,0.00,,,0.00,Weather View 32 v70,2013-03-11 12:20:00,
2013-03-11 08:25:00,42.1,30.8,29.49,ESE,112,8.0,26.0,64,0.00,,,0.00,Weather View 32 v70,2013-03-11 12:25:00,
2013-03-11 08:30:00,42.7,31.0,29.49,SE,135,10.0,26.0,63,0.00,,,0.00,Weather View 32 v70,2013-03-11 12:30:00,
2013-03-11 08:35:00,43.0,30.9,29.49,SSE,157,11.0,26.0,62,0.00,,,0.00,Weather View 32 v70,2013-03-11 12:35:00,
2013-03-11 08:40:00,42.9,30.8,29.49,SE,135,9.0,26.0,62,0.00,,,0.00,Weather View 32 v70,2013-03-11 12:40:00,
2013-03-11 08:45:00,42.4,30.3,29.49,SSE,157,7.0,26.0,62,0.00,,,0.00,Weather View 32 v70,2013-03-11 12:45:00,
2013-03-11 08:50:00,42.6,30.5,29.49,South,180,7.0,26.0,62,0.00,,,0.00,Weather View 32 v70,2013-03-11 12:50:00,
2013-03-11 08:55:00,42.5,30.4,29.49,SSE,157,13.0,26.0,62,0.00,,,0.00,Weather View 32 v70,2013-03-11 12:55:00,
2013-03-11 09:00:00,42.6,30.5,29.49,SSE,157,14.0,26.0,62,0.00,,,0.00,Weather View 32 v70,2013-03-11 13:00:00,
2013-03-11 09:05:00,42.3,30.2,29.49,ESE,112,14.0,26.0,62,0.00,,,0.00,Weather View 32 v70,2013-03-11 13:05:00,
2013-03-11 09:10:00,42.0,29.9,29.50,ESE,112,19.0,26.0,62,0.00,,,0.00,Weather View 32 v70,2013-03-11 13:10:00,
2013-03-11 09:15:00,41.7,30.4,29.49,ESE,112,10.0,26.0,64,0.00,,,0.00,Weather View 32 v70,2013-03-11 13:15:00,
2013-03-11 09:20:00,41.6,30.3,29.51,SE,135,12.0,23.0,64,0.00,,,0.00,Weather View 32 v70,2013-03-11 13:20:00,
2013-03-11 09:25:00,41.5,30.6,29.51,SSE,157,16.0,25.0,65,0.00,,,0.00,Weather View 32 v70,2013-03-11 13:25:00,
2013-03-11 09:30:00,41.8,30.5,29.51,ESE,112,14.0,25.0,64,0.00,,,0.00,Weather View 32 v70,2013-03-11 13:30:00,
2013-03-11 09:35:00,42.0,30.3,29.50,SSE,157,9.0,25.0,63,0.00,,,0.00,Weather View 32 v70,2013-03-11 13:35:00,
2013-03-11 09:40:00,42.3,30.6,29.50,ESE,112,6.0,25.0,63,0.00,,,0.00,Weather View 32 v70,2013-03-11 13:40:00,
2013-03-11 09:45:00,42.4,29.9,29.50,ESE,112,9.0,25.0,61,0.00,,,0.00,Weather View 32 v70,2013-03-11 13:45:00,
2013-03-11 09:50:00,42.4,29.9,29.50,SE,135,12.0,25.0,61,0.00,,,0.00,Weather View 32 v70,2013-03-11 13:50:00,
2013-03-11 09:55:00,42.3,29.8,29.51,SSE,157,11.0,25.0,61,0.00,,,0.00,Weather View 32 v70,2013-03-11 13:55:00,
2013-03-11 10:00:00,42.3,29.8,29.50,SE,135,9.0,25.0,61,0.00,,,0.00,Weather View 32 v70,2013-03-11 14:00:00,
2013-03-11 10:05:00,42.4,29.9,29.50,SSE,157,4.0,25.0,61,0.00,,,0.00,Weather View 32 v70,2013-03-11 14:05:00,
2013-03-11 10:10:00,42.4,29.5,29.50,ESE,112,4.0,25.0,60,0.00,,,0.00,Weather View 32 v70,2013-03-11 14:10:00,
2013-03-11 10:15:00,42.4,29.1,29.49,SSE,157,7.0,25.0,59,0.00,,,0.00,Weather View 32 v70,2013-03-11 14:15:00,
2013-03-11 10:20:00,42.4,29.5,29.49,SSE,157,8.0,25.0,60,0.00,,,0.00,Weather View 32 v70,2013-03-11 14:20:00,
2013-03-11 10:25:00,42.5,30.0,29.49,SSE,157,9.0,25.0,61,0.00,,,0.00,Weather View 32 v70,2013-03-11 14:25:00,
2013-03-11 10:30:00,42.5,30.4,29.49,East,90,3.0,25.0,62,0.00,,,0.00,Weather View 32 v70,2013-03-11 14:30:00,
2013-03-11 10:35:00,42.7,30.6,29.49,SSE,157,4.0,25.0,62,0.00,,,0.00,Weather View 32 v70,2013-03-11 14:35:00,
2013-03-11 10:40:00,42.7,30.6,29.49,ESE,112,4.0,25.0,62,0.00,,,0.00,Weather View 32 v70,2013-03-11 14:40:00,
2013-03-11 10:45:00,42.7,30.6,29.49,East,90,6.0,25.0,62,0.00,,,0.00,Weather View 32 v70,2013-03-11 14:45:00,
2013-03-11 10:50:00,42.8,30.7,29.49,ENE,67,1.0,25.0,62,0.00,,,0.00,Weather View 32 v70,2013-03-11 14:50:00,
2013-03-11 10:55:00,42.9,30.4,29.48,SW,225,6.0,25.0,61,0.00,,,0.00,Weather View 32 v70,2013-03-11 14:55:00,
2013-03-11 11:00:00,42.9,30.4,29.49,ENE,67,12.0,19.0,61,0.00,,,0.00,Weather View 32 v70,2013-03-11 15:00:00,
2013-03-11 11:05:00,42.9,30.4,29.49,ESE,112,4.0,19.0,61,0.00,,,0.00,Weather View 32 v70,2013-03-11 15:05:00,
2013-03-11 11:10:00,42.6,30.1,29.48,ESE,112,8.0,19.0,61,0.00,,,0.00,Weather View 32 v70,2013-03-11 15:10:00,
2013-03-11 11:15:00,42.8,30.3,29.48,East,90,13.0,19.0,61,0.00,,,0.00,Weather View 32 v70,2013-03-11 15:15:00,
2013-03-11 11:20:00,42.7,30.2,29.47,ESE,112,0.0,19.0,61,0.00,,,0.00,Weather View 32 v70,2013-03-11 15:20:00,
2013-03-11 11:25:00,42.9,30.4,29.48,SE,135,12.0,19.0,61,0.00,,,0.00,Weather View 32 v70,2013-03-11 15:25:00,
2013-03-11 11:30:00,43.0,30.5,29.48,ESE,112,9.0,17.0,61,0.00,,,0.00,Weather View 32 v70,2013-03-11 15:30:00,
2013-03-11 11:35:00,43.1,30.5,29.48,SSE,157,17.0,17.0,61,0.00,,,0.00,Weather View 32 v70,2013-03-11 15:35:00,
2013-03-11 11:40:00,43.0,30.9,29.47,South,180,8.0,22.0,62,0.00,,,0.00,Weather View 32 v70,2013-03-11 15:40:00,
2013-03-11 11:45:00,43.1,30.9,29.48,SSE,157,6.0,22.0,62,0.00,,,0.00,Weather View 32 v70,2013-03-11 15:45:00,
2013-03-11 11:50:00,43.0,30.9,29.48,SSE,157,10.0,22.0,62,0.00,,,0.00,Weather View 32 v70,2013-03-11 15:50:00,
2013-03-11 11:55:00,43.0,30.9,29.48,SSE,157,9.0,23.0,62,0.00,,,0.00,Weather View 32 v70,2013-03-11 15:55:00,
2013-03-11 12:01:00,42.9,31.2,29.48,SSE,157,9.0,23.0,63,0.00,,,0.00,Weather View 32 v70,2013-03-11 16:01:00,
2013-03-11 12:06:00,43.0,31.2,29.47,ESE,112,1.0,23.0,63,0.00,,,0.00,Weather View 32 v70,2013-03-11 16:06:00,
2013-03-11 12:11:00,43.1,31.3,29.47,ESE,112,17.0,23.0,63,0.00,,,0.00,Weather View 32 v70,2013-03-11 16:11:00,
2013-03-11 12:16:00,43.1,31.3,29.47,SSE,157,9.0,26.0,63,0.00,,,0.00,Weather View 32 v70,2013-03-11 16:16:00,
2013-03-11 12:21:00,43.1,31.3,29.47,ESE,112,13.0,26.0,63,0.00,,,0.00,Weather View 32 v70,2013-03-11 16:21:00,
2013-03-11 12:26:00,43.3,31.5,29.47,ESE,112,10.0,26.0,63,0.00,,,0.00,Weather View 32 v70,2013-03-11 16:26:00,
2013-03-11 12:31:00,43.4,31.6,29.47,SSE,157,15.0,26.0,63,0.00,,,0.00,Weather View 32 v70,2013-03-11 16:31:00,
2013-03-11 12:36:00,43.4,31.2,29.47,SSE,157,10.0,26.0,62,0.00,,,0.00,Weather View 32 v70,2013-03-11 16:36:00,
2013-03-11 12:41:00,43.7,31.9,29.47,ESE,112,6.0,26.0,63,0.00,,,0.00,Weather View 32 v70,2013-03-11 16:41:00,
2013-03-11 12:46:00,43.9,31.7,29.48,ESE,112,9.0,26.0,62,0.00,,,0.00,Weather View 32 v70,2013-03-11 16:46:00,
2013-03-11 12:51:00,44.1,31.9,29.48,ESE,112,13.0,26.0,62,0.00,,,0.00,Weather View 32 v70,2013-03-11 16:51:00,
2013-03-11 12:57:00,44.3,32.1,29.48,SSE,157,7.0,26.0,62,0.00,,,0.00,Weather View 32 v70,2013-03-11 16:57:00,
2013-03-11 13:02:00,44.4,32.2,29.48,East,90,11.0,26.0,62,0.00,,,0.00,Weather View 32 v70,2013-03-11 17:02:00,
2013-03-11 13:07:00,44.4,32.2,29.48,SE,135,16.0,26.0,62,0.00,,,0.00,Weather View 32 v70,2013-03-11 17:07:00,
2013-03-11 13:12:00,44.4,32.2,29.47,ESE,112,12.0,26.0,62,0.00,,,0.00,Weather View 32 v70,2013-03-11 17:12:00,
2013-03-11 13:17:00,44.7,32.5,29.47,ESE,112,7.0,26.0,62,0.00,,,0.00,Weather View 32 v70,2013-03-11 17:17:00,
2013-03-11 13:22:00,44.8,32.6,29.47,ESE,112,9.0,26.0,62,0.00,,,0.00,Weather View 32 v70,2013-03-11 17:22:00,
2013-03-11 13:27:00,44.9,32.7,29.47,ESE,112,4.0,26.0,62,0.00,,,0.00,Weather View 32 v70,2013-03-11 17:27:00,
2013-03-11 13:32:00,45.0,32.7,29.47,South,180,12.0,26.0,62,0.00,,,0.00,Weather View 32 v70,2013-03-11 17:32:00,
2013-03-11 13:37:00,45.1,32.8,29.47,SE,135,9.0,26.0,62,0.00,,,0.00,Weather View 32 v70,2013-03-11 17:37:00,
2013-03-11 13:42:00,45.1,32.8,29.46,ESE,112,13.0,26.0,62,0.00,,,0.00,Weather View 32 v70,2013-03-11 17:42:00,
2013-03-11 13:47:00,45.2,33.3,29.46,SSE,157,6.0,23.0,63,0.00,,,0.00,Weather View 32 v70,2013-03-11 17:47:00,
2013-03-11 13:52:00,45.2,32.9,29.46,ESE,112,8.0,23.0,62,0.00,,,0.00,Weather View 32 v70,2013-03-11 17:52:00,
2013-03-11 13:57:00,45.3,33.0,29.46,East,90,7.0,23.0,62,0.00,,,0.00,Weather View 32 v70,2013-03-11 17:57:00,
2013-03-11 14:02:00,45.3,33.4,29.45,South,180,6.0,23.0,63,0.00,,,0.00,Weather View 32 v70,2013-03-11 18:02:00,
2013-03-11 14:07:00,45.4,33.5,29.45,South,180,0.0,23.0,63,0.00,,,0.00,Weather View 32 v70,2013-03-11 18:07:00,
2013-03-11 14:12:00,45.7,33.8,29.46,ESE,112,3.0,23.0,63,0.00,,,0.00,Weather View 32 v70,2013-03-11 18:12:00,
2013-03-11 14:17:00,45.9,34.0,29.45,SSW,202,0.0,23.0,63,0.00,,,0.00,Weather View 32 v70,2013-03-11 18:17:00,
2013-03-11 14:22:00,46.1,33.8,29.45,SSW,202,1.0,23.0,62,0.00,,,0.00,Weather View 32 v70,2013-03-11 18:22:00,
2013-03-11 14:27:00,46.4,34.1,29.46,SSE,157,2.0,23.0,62,0.00,,,0.00,Weather View 32 v70,2013-03-11 18:27:00,
2013-03-11 14:32:00,46.4,34.1,29.45,ESE,112,1.0,23.0,62,0.00,,,0.00,Weather View 32 v70,2013-03-11 18:32:00,
2013-03-11 14:37:00,46.6,34.3,29.45,SE,135,7.0,23.0,62,0.00,,,0.00,Weather View 32 v70,2013-03-11 18:37:00,
2013-03-11 14:42:00,46.6,34.3,29.45,SSE,157,0.0,23.0,62,0.00,,,0.00,Weather View 32 v70,2013-03-11 18:42:00,
2013-03-11 14:47:00,46.8,34.4,29.45,WSW,247,6.0,21.0,62,0.00,,,0.00,Weather View 32 v70,2013-03-11 18:47:00,
2013-03-11 14:52:00,47.0,34.2,29.44,ESE,112,2.0,21.0,61,0.00,,,0.00,Weather View 32 v70,2013-03-11 18:52:00,
2013-03-11 14:57:00,47.1,34.3,29.44,East,90,5.0,21.0,61,0.00,,,0.00,Weather View 32 v70,2013-03-11 18:57:00,
2013-03-11 15:02:00,47.6,34.4,29.44,SSE,157,5.0,16.0,60,0.00,,,0.00,Weather View 32 v70,2013-03-11 19:02:00,
2013-03-11 15:08:00,47.8,34.6,29.43,East,90,0.0,16.0,60,0.00,,,0.00,Weather View 32 v70,2013-03-11 19:08:00,
2013-03-11 15:13:00,48.0,34.3,29.43,ENE,67,1.0,16.0,59,0.00,,,0.00,Weather View 32 v70,2013-03-11 19:13:00,
2013-03-11 15:18:00,48.0,34.3,29.43,South,180,1.0,16.0,59,0.00,,,0.00,Weather View 32 v70,2013-03-11 19:18:00,
2013-03-11 15:23:00,48.2,34.1,29.43,East,90,1.0,16.0,58,0.00,,,0.00,Weather View 32 v70,2013-03-11 19:23:00,
2013-03-11 15:28:00,48.2,34.1,29.43,SSE,157,1.0,16.0,58,0.00,,,0.00,Weather View 32 v70,2013-03-11 19:28:00,
2013-03-11 15:33:00,48.2,34.1,29.43,SSW,202,10.0,16.0,58,0.00,,,0.00,Weather View 32 v70,2013-03-11 19:33:00,
2013-03-11 15:38:00,48.2,34.1,29.43,ESE,112,7.0,16.0,58,0.00,,,0.00,Weather View 32 v70,2013-03-11 19:38:00,
2013-03-11 15:43:00,48.2,34.1,29.43,ENE,67,3.0,17.0,58,0.00,,,0.00,Weather View 32 v70,2013-03-11 19:43:00,
2013-03-11 15:48:00,48.3,34.2,29.42,ESE,112,5.0,17.0,58,0.00,,,0.00,Weather View 32 v70,2013-03-11 19:48:00,
2013-03-11 15:53:00,48.4,34.3,29.42,WSW,247,0.0,17.0,58,0.00,,,0.00,Weather View 32 v70,2013-03-11 19:53:00,
2013-03-11 15:58:00,48.6,34.5,29.42,SSW,202,0.0,17.0,58,0.00,,,0.00,Weather View 32 v70,2013-03-11 19:58:00,
2013-03-11 16:03:00,48.7,34.1,29.41,South,180,3.0,17.0,57,0.00,,,0.00,Weather View 32 v70,2013-03-11 20:03:00,
2013-03-11 16:08:00,48.7,33.7,29.41,SSE,157,7.0,19.0,56,0.00,,,0.00,Weather View 32 v70,2013-03-11 20:08:00,
2013-03-11 16:13:00,48.6,34.0,29.41,South,180,8.0,19.0,57,0.00,,,0.00,Weather View 32 v70,2013-03-11 20:13:00,
2013-03-11 16:18:00,48.6,34.0,29.41,ESE,112,13.0,21.0,57,0.00,,,0.00,Weather View 32 v70,2013-03-11 20:18:00,
2013-03-11 16:23:00,48.4,34.3,29.41,SSE,157,10.0,21.0,58,0.00,,,0.00,Weather View 32 v70,2013-03-11 20:23:00,
2013-03-11 16:28:00,48.4,33.8,29.41,SE,135,10.0,21.0,57,0.00,,,0.00,Weather View 32 v70,2013-03-11 20:28:00,
2013-03-11 16:33:00,48.4,33.8,29.41,SSE,157,7.0,21.0,57,0.00,,,0.00,Weather View 32 v70,2013-03-11 20:33:00,
2013-03-11 16:38:00,48.4,34.3,29.41,East,90,6.0,21.0,58,0.00,,,0.00,Weather View 32 v70,2013-03-11 20:38:00,
2013-03-11 16:43:00,48.4,33.8,29.41,ESE,112,10.0,21.0,57,0.00,,,0.00,Weather View 32 v70,2013-03-11 20:43:00,
2013-03-11 16:48:00,48.4,33.8,29.40,SE,135,2.0,21.0,57,0.00,,,0.00,Weather View 32 v70,2013-03-11 20:48:00,
2013-03-11 16:53:00,48.4,33.8,29.40,SSE,157,7.0,21.0,57,0.00,,,0.00,Weather View 32 v70,2013-03-11 20:53:00,
2013-03-11 16:58:00,48.4,34.3,29.41,South,180,4.0,21.0,58,0.00,,,0.00,Weather View 32 v70,2013-03-11 20:58:00,
2013-03-11 17:03:00,48.3,34.2,29.40,SSE,157,6.0,21.0,58,0.00,,,0.00,Weather View 32 v70,2013-03-11 21:03:00,
2013-03-11 17:08:00,48.3,34.2,29.39,SSE,157,8.0,21.0,58,0.00,,,0.00,Weather View 32 v70,2013-03-11 21:08:00,
2013-03-11 17:13:00,48.2,34.1,29.39,ESE,112,12.0,21.0,58,0.00,,,0.00,Weather View 32 v70,2013-03-11 21:13:00,
2013-03-11 17:18:00,48.1,34.0,29.39,SSE,157,7.0,21.0,58,0.00,,,0.00,Weather View 32 v70,2013-03-11 21:18:00,
2013-03-11 17:23:00,48.0,34.3,29.39,SSW,202,3.0,21.0,59,0.00,,,0.00,Weather View 32 v70,2013-03-11 21:23:00,
2013-03-11 17:28:00,48.0,34.3,29.39,South,180,3.0,21.0,59,0.00,,,0.00,Weather View 32 v70,2013-03-11 21:28:00,
2013-03-11 17:33:00,47.9,34.2,29.39,South,180,11.0,20.0,59,0.00,,,0.00,Weather View 32 v70,2013-03-11 21:33:00,
2013-03-11 17:38:00,47.9,34.2,29.39,SSE,157,8.0,20.0,59,0.00,,,0.00,Weather View 32 v70,2013-03-11 21:38:00,
2013-03-11 17:43:00,47.6,34.4,29.39,South,180,11.0,20.0,60,0.00,,,0.00,Weather View 32 v70,2013-03-11 21:43:00,
2013-03-11 17:48:00,47.7,34.5,29.39,ESE,112,9.0,20.0,60,0.00,,,0.00,Weather View 32 v70,2013-03-11 21:48:00,
2013-03-11 17:53:00,47.4,34.2,29.39,South,180,10.0,22.0,60,0.00,,,0.00,Weather View 32 v70,2013-03-11 21:53:00,
2013-03-11 17:58:00,47.7,34.0,29.39,SW,225,13.0,22.0,59,0.00,,,0.00,Weather View 32 v70,2013-03-11 21:58:00,
2013-03-11 18:03:00,47.7,34.0,29.39,WSW,247,8.0,22.0,59,0.00,,,0.00,Weather View 32 v70,2013-03-11 22:03:00,
2013-03-11 18:08:00,47.7,34.0,29.39,SSE,157,16.0,22.0,59,0.00,,,0.00,Weather View 32 v70,2013-03-11 22:08:00,
2013-03-11 18:13:00,47.7,34.0,29.39,SW,225,10.0,22.0,59,0.00,,,0.00,Weather View 32 v70,2013-03-11 22:13:00,
2013-03-11 18:18:00,47.8,33.7,29.39,SSW,202,14.0,22.0,58,0.00,,,0.00,Weather View 32 v70,2013-03-11 22:18:00,
2013-03-11 18:23:00,47.7,33.6,29.39,SSE,157,14.0,22.0,58,0.00,,,0.00,Weather View 32 v70,2013-03-11 22:23:00,
2013-03-11 18:28:00,47.8,33.7,29.39,SSW,202,8.0,25.0,58,0.00,,,0.00,Weather View 32 v70,2013-03-11 22:28:00,
2013-03-11 18:33:00,47.7,33.6,29.39,SSW,202,7.0,25.0,58,0.00,,,0.00,Weather View 32 v70,2013-03-11 22:33:00,
2013-03-11 18:38:00,47.6,34.0,29.39,SSE,157,9.0,25.0,59,0.00,,,0.00,Weather View 32 v70,2013-03-11 22:38:00,
2013-03-11 18:44:00,47.6,34.0,29.39,SSE,157,7.0,25.0,59,0.00,,,0.00,Weather View 32 v70,2013-03-11 22:44:00,
2013-03-11 18:49:00,47.6,34.0,29.39,SSW,202,12.0,25.0,59,0.00,,,0.00,Weather View 32 v70,2013-03-11 22:49:00,
2013-03-11 18:54:00,47.7,34.0,29.39,SSE,157,2.0,25.0,59,0.00,,,0.00,Weather View 32 v70,2013-03-11 22:54:00,
2013-03-11 18:59:00,47.6,34.4,29.39,SW,225,7.0,25.0,60,0.00,,,0.00,Weather View 32 v70,2013-03-11 22:59:00,
2013-03-11 19:04:00,47.5,34.3,29.38,SE,135,8.0,25.0,60,0.00,,,0.00,Weather View 32 v70,2013-03-11 23:04:00,
2013-03-11 19:09:00,47.5,34.3,29.39,SW,225,10.0,25.0,60,0.00,,,0.00,Weather View 32 v70,2013-03-11 23:09:00,
2013-03-11 19:14:00,47.6,34.4,29.39,SE,135,8.0,25.0,60,0.00,,,0.00,Weather View 32 v70,2013-03-11 23:14:00,
2013-03-11 19:19:00,47.4,34.2,29.39,South,180,12.0,25.0,60,0.00,,,0.00,Weather View 32 v70,2013-03-11 23:19:00,
2013-03-11 19:24:00,47.4,34.2,29.39,ESE,112,11.0,25.0,60,0.00,,,0.00,Weather View 32 v70,2013-03-11 23:24:00,
2013-03-11 19:29:00,47.3,34.1,29.39,SSE,157,9.0,25.0,60,0.00,,,0.00,Weather View 32 v70,2013-03-11 23:29:00,
2013-03-11 19:34:00,47.4,34.2,29.39,SSE,157,10.0,20.0,60,0.00,,,0.00,Weather View 32 v70,2013-03-11 23:34:00,
2013-03-11 19:39:00,47.4,34.2,29.39,SSE,157,9.0,20.0,60,0.00,,,0.00,Weather View 32 v70,2013-03-11 23:39:00,
2013-03-11 19:44:00,47.4,33.8,29.40,South,180,8.0,20.0,59,0.00,,,0.00,Weather View 32 v70,2013-03-11 23:44:00,
2013-03-11 19:49:00,47.4,34.2,29.39,SSW,202,10.0,20.0,60,0.00,,,0.00,Weather View 32 v70,2013-03-11 23:49:00,
2013-03-11 19:54:00,47.4,34.2,29.39,ESE,112,4.0,20.0,60,0.00,,,0.00,Weather View 32 v70,2013-03-11 23:54:00,
2013-03-11 19:59:00,47.4,34.2,29.39,SE,135,8.0,20.0,60,0.00,,,0.00,Weather View 32 v70,2013-03-11 23:59:00,
2013-03-11 20:04:00,47.3,34.1,29.39,ESE,112,8.0,20.0,60,0.00,,,0.00,Weather View 32 v70,2013-03-12 00:04:00,
2013-03-11 20:09:00,47.3,34.1,29.39,South,180,7.0,20.0,60,0.00,,,0.00,Weather View 32 v70,2013-03-12 00:09:00,
2013-03-11 20:14:00,47.4,33.8,29.38,SSE,157,8.0,20.0,59,0.00,,,0.00,Weather View 32 v70,2013-03-12 00:14:00,
2013-03-11 20:19:00,47.6,33.5,29.38,ESE,112,6.0,19.0,58,0.00,,,0.00,Weather View 32 v70,2013-03-12 00:19:00,
2013-03-11 20:24:00,47.7,33.6,29.38,South,180,11.0,21.0,58,0.00,,,0.00,Weather View 32 v70,2013-03-12 00:24:00,
2013-03-11 20:29:00,47.8,33.7,29.37,SSW,202,13.0,21.0,58,0.00,,,0.00,Weather View 32 v70,2013-03-12 00:29:00,
2013-03-11 20:34:00,47.9,33.4,29.38,South,180,10.0,21.0,57,0.00,,,0.00,Weather View 32 v70,2013-03-12 00:34:00,
2013-03-11 20:39:00,48.0,33.5,29.37,South,180,10.0,21.0,57,0.00,,,0.00,Weather View 32 v70,2013-03-12 00:39:00,
2013-03-11 20:44:00,47.9,33.8,29.38,South,180,6.0,21.0,58,0.00,,,0.00,Weather View 32 v70,2013-03-12 00:44:00,
2013-03-11 20:49:00,47.9,33.8,29.38,SSE,157,0.0,21.0,58,0.00,,,0.00,Weather View 32 v70,2013-03-12 00:49:00,
2013-03-11 20:54:00,47.8,33.7,29.38,SE,135,8.0,21.0,58,0.00,,,0.00,Weather View 32 v70,2013-03-12 00:54:00,
2013-03-11 20:59:00,47.9,33.4,29.38,South,180,10.0,21.0,57,0.00,,,0.00,Weather View 32 v70,2013-03-12 00:59:00,
2013-03-11 21:04:00,47.8,33.7,29.37,WNW,292,3.0,21.0,58,0.00,,,0.00,Weather View 32 v70,2013-03-12 01:04:00,
2013-03-11 21:09:00,47.8,33.7,29.38,WSW,247,6.0,21.0,58,0.00,,,0.00,Weather View 32 v70,2013-03-12 01:09:00,
2013-03-11 21:14:00,47.9,33.4,29.37,SW,225,0.0,21.0,57,0.00,,,0.00,Weather View 32 v70,2013-03-12 01:14:00,
2013-03-11 21:19:00,47.9,33.4,29.37,SSW,202,3.0,21.0,57,0.00,,,0.00,Weather View 32 v70,2013-03-12 01:19:00,
2013-03-11 21:24:00,47.8,33.3,29.37,SSE,157,6.0,21.0,57,0.00,,,0.00,Weather View 32 v70,2013-03-12 01:24:00,
2013-03-11 21:29:00,47.8,33.3,29.37,ESE,112,4.0,21.0,57,0.00,,,0.00,Weather View 32 v70,2013-03-12 01:29:00,
2013-03-11 21:34:00,47.8,32.8,29.36,SE,135,4.0,18.0,56,0.00,,,0.00,Weather View 32 v70,2013-03-12 01:34:00,
2013-03-11 21:39:00,47.8,32.4,29.37,NW,315,3.0,18.0,55,0.00,,,0.00,Weather View 32 v70,2013-03-12 01:39:00,
2013-03-11 21:44:00,47.7,32.3,29.37,SE,135,6.0,18.0,55,0.00,,,0.00,Weather View 32 v70,2013-03-12 01:44:00,
2013-03-11 21:49:00,47.6,32.2,29.36,SSE,157,1.0,17.0,55,0.00,,,0.00,Weather View 32 v70,2013-03-12 01:49:00,
2013-03-11 21:54:00,47.4,32.0,29.37,WSW,247,6.0,17.0,55,0.00,,,0.00,Weather View 32 v70,2013-03-12 01:54:00,
2013-03-11 21:59:00,47.4,32.0,29.37,ESE,112,2.0,17.0,55,0.00,,,0.00,Weather View 32 v70,2013-03-12 01:59:00,
2013-03-11 22:04:00,47.4,32.0,29.37,SSW,202,1.0,15.0,55,0.00,,,0.00,Weather View 32 v70,2013-03-12 02:04:00,
2013-03-11 22:09:00,47.3,31.9,29.37,SSW,202,7.0,15.0,55,0.00,,,0.00,Weather View 32 v70,2013-03-12 02:09:00,
2013-03-11 22:14:00,47.3,31.9,29.37,East,90,0.0,15.0,55,0.00,,,0.00,Weather View 32 v70,2013-03-12 02:14:00,
2013-03-11 22:19:00,47.2,31.4,29.37,SSE,157,1.0,11.0,54,0.00,,,0.00,Weather View 32 v70,2013-03-12 02:19:00,
2013-03-11 22:24:00,47.3,31.9,29.36,SSW,202,0.0,12.0,55,0.00,,,0.00,Weather View 32 v70,2013-03-12 02:24:00,
2013-03-11 22:29:00,47.3,31.5,29.36,West,270,3.0,12.0,54,0.00,,,0.00,Weather View 32 v70,2013-03-12 02:29:00,
2013-03-11 22:34:00,47.4,31.1,29.36,ESE,112,9.0,14.0,53,0.00,,,0.00,Weather View 32 v70,2013-03-12 02:34:00,
2013-03-11 22:39:00,47.4,31.6,29.36,SSW,202,9.0,14.0,54,0.00,,,0.00,Weather View 32 v70,2013-03-12 02:39:00,
2013-03-11 22:44:00,47.6,31.3,29.36,ESE,112,0.0,14.0,53,0.00,,,0.00,Weather View 32 v70,2013-03-12 02:44:00,
2013-03-11 22:49:00,47.7,31.4,29.36,ESE,112,6.0,18.0,53,0.00,,,0.00,Weather View 32 v70,2013-03-12 02:49:00,
2013-03-11 22:54:00,47.7,31.4,29.36,SSW,202,3.0,18.0,53,0.00,,,0.00,Weather View 32 v70,2013-03-12 02:54:00,
2013-03-11 22:59:00,47.6,31.3,29.36,WSW,247,3.0,18.0,53,0.00,,,0.00,Weather View 32 v70,2013-03-12 02:59:00,
2013-03-11 23:04:00,47.4,31.6,29.36,SSE,157,7.0,18.0,54,0.00,,,0.00,Weather View 32 v70,2013-03-12 03:04:00,
2013-03-11 23:09:00,47.4,32.0,29.36,South,180,0.0,18.0,55,0.00,,,0.00,Weather View 32 v70,2013-03-12 03:09:00,
2013-03-11 23:14:00,47.4,32.0,29.37,SW,225,7.0,18.0,55,0.00,,,0.00,Weather View 32 v70,2013-03-12 03:14:00,
2013-03-11 23:19:00,47.4,32.0,29.37,WSW,247,6.0,18.0,55,0.00,,,0.00,Weather View 32 v70,2013-03-12 03:19:00,
2013-03-11 23:24:00,47.4,32.9,29.37,NNE,22,1.0,18.0,57,0.00,,,0.00,Weather View 32 v70,2013-03-12 03:24:00,
2013-03-11 23:29:00,47.3,32.8,29.36,ESE,112,9.0,19.0,57,0.00,,,0.00,Weather View 32 v70,2013-03-12 03:29:00,
2013-03-11 23:34:00,47.4,33.3,29.35,West,270,0.0,19.0,58,0.00,,,0.00,Weather View 32 v70,2013-03-12 03:34:00,
2013-03-11 23:39:00,47.4,33.3,29.35,SSE,157,6.0,19.0,58,0.00,,,0.00,Weather View 32 v70,2013-03-12 03:39:00,
2013-03-11 23:44:00,47.4,33.3,29.35,SE,135,0.0,19.0,58,0.00,,,0.00,Weather View 32 v70,2013-03-12 03:44:00,
2013-03-11 23:49:00,47.3,33.7,29.35,NNW,337,3.0,20.0,59,0.00,,,0.00,Weather View 32 v70,2013-03-12 03:49:00,
2013-03-11 23:54:00,47.2,33.6,29.35,East,90,10.0,20.0,59,0.00,,,0.00,Weather View 32 v70,2013-03-12 03:54:00,
2013-03-11 23:59:00,47.2,34.0,29.35,SSE,157,11.0,20.0,60,0.00,,,0.00,Weather View 32 v70,2013-03-12 03:59:00,